Weather History for RJOO - February, 2014

Change the Weather History Date:

Wednesday, February 5, 2014

  Actual Average Record
Temperature  
Mean Temperature 36 °F -  
Max Temperature 41 °F 50 °F 57 °F (2007)
Min Temperature 32 °F 34 °F 26 °F (1999)
Degree Days  
Heating Degree Days 28    
Moisture  
Dew Point 22 °F    
Average Humidity 59    
Maximum Humidity 81    
Minimum Humidity 39    
Precipitation  
Precipitation 0.00 in - - ()
Sea Level Pressure  
Sea Level Pressure 30.20 in    
Wind  
Wind Speed 9 mph ()    
Max Wind Speed 20 mph    
Max Gust Speed -    
Visibility 5.9 miles    
Events Snow    
Averages and records for this station are not official NWS values.
T = Trace of Precipitation, MM = Missing Value Source: Averaged Metar Reports

Daily Weather History Graph

Daily Weather History Graph

Search for Another Location

Airport or City:

Trip Planner

Search our weather history database for the weather conditions in past years. The results will help you decide how hot, cold, wet, or windy it might be!

Date:

Astronomy

Feb. 05, 2014 Rise Set
Actual Time 6:53 AM JST 5:30 PM JST
Civil Twilight 6:27 AM JST 5:57 PM JST
Nautical Twilight 5:57 AM JST 6:27 PM JST
Astronomical Twilight 5:28 AM JST 6:56 PM JST
Moon 10:01 AM JST (2/5) 11:31 PM JST (2/5)
Length of Visible Light 11h 29m
Length of Day
10h 36m
Waxing Crescent, 33% of the Moon is Illuminated
Feb 5
Waxing Crescent
Feb 7
First Quarter
Feb 15
Full
Feb 23
Last Quarter
Mar 1
New

Hourly Weather History & Observations

Time (JST) Temp. Windchill Dew Point Humidity Pressure Visibility Wind Dir Wind Speed Gust Speed Precip Events Conditions
5:00 AM 33.8 °F 29.6 °F 23.0 °F 65% 30.09 in 6.2 mi West 4.6 mph - N/A   Partly Cloudy
6:00 AM 32.0 °F 28.7 °F 23.0 °F 69% 30.12 in 6.2 mi West 3.5 mph - N/A   Partly Cloudy
7:00 AM 32.0 °F 27.5 °F 24.8 °F 75% 30.15 in 6.2 mi NW 4.6 mph - N/A Snow Light Snow Showers
8:00 AM 33.8 °F 27.0 °F 23.0 °F 65% 30.18 in 6.2 mi NW 8.1 mph - N/A   Partly Cloudy
9:00 AM 37.4 °F 30.8 °F 21.2 °F 52% 30.21 in 6.2 mi WNW 9.2 mph - N/A Snow Light Snow Showers
10:00 AM 37.4 °F 32.1 °F 21.2 °F 52% 30.21 in 6.2 mi WNW 6.9 mph - N/A   Scattered Clouds
11:00 AM 39.2 °F 32.5 °F 21.2 °F 49% 30.21 in 6.2 mi NW 10.4 mph - N/A   Unknown
12:00 PM 35.6 °F 24.8 °F 26.6 °F 70% 30.21 in 3.1 mi North 19.6 mph - N/A Snow Light Snow Showers
12:11 PM 33.8 °F 22.5 °F 26.6 °F 75% 30.21 in 4.3 mi NNW 19.6 mph - N/A Snow Light Snow Showers
12:17 PM 33.8 °F 23.2 °F 28.4 °F 81% 30.21 in 6.2 mi NNW 17.3 mph - N/A Snow Light Snow Showers
1:00 PM 41.0 °F 33.9 °F 21.2 °F 45% 30.18 in 6.2 mi NW 12.7 mph - N/A   Scattered Clouds
1:38 PM 39.2 °F 31.6 °F 19.4 °F 45% 30.18 in 6.2 mi North 12.7 mph - N/A   Scattered Clouds
2:00 PM 41.0 °F 32.8 °F 17.6 °F 39% 30.18 in 6.2 mi North 16.1 mph - N/A   Partly Cloudy
3:00 PM 39.2 °F 31.2 °F 19.4 °F 45% 30.18 in 6.2 mi North 13.8 mph - N/A   Unknown
4:00 PM 37.4 °F 28.2 °F 19.4 °F 48% 30.21 in 6.2 mi NNW 16.1 mph - N/A Snow Light Snow Showers
5:00 PM 37.4 °F 29.3 °F 23.0 °F 56% 30.24 in 6.2 mi North 12.7 mph - N/A Snow Light Snow Showers
6:00 PM 33.8 °F 26.4 °F 23.0 °F 65% 30.27 in 6.2 mi NW 9.2 mph - N/A   Partly Cloudy
7:00 PM 33.8 °F 25.3 °F 19.4 °F 56% 30.27 in 6.2 mi North 11.5 mph - N/A   Partly Cloudy
8:00 PM 32.0 °F 24.2 °F 21.2 °F 64% 30.27 in 6.2 mi NNW 9.2 mph - N/A   Partly Cloudy